Notices

What's New in latest Release from April 7th, 2021:

- Updated Glossary, including Speed of Maximum Gust, and Total Hourly Precipitation

- Updated national and regional climate services offices contacts and prices information

- Addition of station inventory lists for 1981-2010, 1971-2000, and 1961-1990 Normals.

If you haven't already, please take our survey and provide feedback about our website: https://eccc.sondage-survey.ca/f/LanguageSelection.aspx?s=442ca660-fcf1-47c0-95a9-59707d6fd709

Hourly Data Report for October 10, 2019

QUALICUM BEACH AIRPORT
BRITISH COLUMBIA
Current Station Operator: ECCC - MSC

49°20'14.000" N
124°23'38.000" W
58.20 m
1026562
71766
VOQ

Download Data

Hourly Data (October 2019)
Hourly Data Report for October 10, 2019
TIME
LST
Temp Definition
°C
Dew Point Definition
°C
Rel Hum Definition
%
Precip. Amount Definition
mm

Wind Dir Definition
10's deg

Wind Spd Definition
km/h
Visibility Definition
km
Stn Press Definition
kPa
Hmdx Definition


Wind Chill Definition


Weather Definition


00:00 -1.1 -2.6 89 0.0 16 1   102.51   -1 LegendNANA
01:00 -0.8 -2.8 87 0.0 26 2   102.51   -1 LegendNANA
02:00 -1.6 -3.2 89 0.0   0   102.50     LegendNANA
03:00 -1.2 -3.0 88 0.0 25 1   102.50   -2 LegendNANA
04:00 -1.8 -3.2 90 0.0 24 2   102.52   -3 LegendNANA
05:00 -1.8 -3.3 90 0.0 25 2   102.53   -3 LegendNANA
06:00 -1.6 -2.7 92 0.0 0 1   102.53   -2 LegendNANA
07:00 -1.5 -2.8 91 0.0 24 2   102.52   -2 LegendNANA
08:00 1.6 -1.6 79 0.0   0   102.54     LegendNANA
09:00 7.2 -0.3 59 0.0 0 1   102.53     LegendNANA
10:00 8.6 1.0 59 0.0 8 5   102.51     LegendNANA
11:00 9.5 2.3 61 0.0 6 6   102.46     LegendNANA
12:00 9.9 2.7 61 0.0 7 8   102.42     LegendNANA
13:00 10.5 1.3 53 0.0 9 8   102.35     LegendNANA
14:00 10.0 -0.3 49 0.0 10 7   102.29     LegendNANA
15:00 10.4 -2.6 40 0.0 9 8   102.23     LegendNANA
16:00 9.7 -0.7 48 0.0 11 6   102.18     LegendNANA
17:00 9.7 0.1 51 0.0 0 1   102.15     LegendNANA
18:00 6.6 0.5 65 0.0 25 1   102.12     LegendNANA
19:00 4.9 0.7 75 0.0 27 2   102.09     LegendNANA
20:00 3.6 1.1 83 0.0 26 2   102.08     LegendNANA
21:00 2.1 0.9 92 0.0   0   102.05     LegendNANA
22:00 2.2 1.3 94 0.0 25 2   102.05     LegendNANA
23:00 1.1 0.5 95 0.0 25 1   102.00     LegendNANA

Notes on Data Quality.

Legend

  • E = Estimated
  • M = Missing
  • NA = Not Available*
  • [empty] = Indicates an unobserved value
Date modified: